Weather in Bolsherechye

Russia / Novosibirsk Oblast     56°33′53″N   76°13′37″E
temp.,
°C
wind,
m/s
gust,
m/s
humid.,
%
clouds,
%
prec.,
mm/h
press.,
hPa
HPBL,
m
28 february, sun
sun2801:00−30s349856 0.0 103447
04:00−31sse339872 0.0 103340
07:00−31se349965 0.0 103245
10:00−29se479797 0.0 1030183
13:00−23ese479598 0.0 1028268
16:00−20ese5892100 0.0 1025362
19:00−20ese51093100 0.0 1023376
22:00−21e51096100 0.1 1021329
1 march, mon
mon101:00−21e51197100 0.1 1018267
04:00−20ene61097100 0.1 1015287
07:00−18ene61196100 0.3 1013330
10:00−18ene61195100 0.1 1012340
13:00−16ne61094100 0.1 1011386
16:00−14ne61093100 0.1 1011444
19:00−13ne51092100 0.3 1012487
22:00−15ne499499 0.1 1014373
2 march, tue
tue201:00−18ne369694 0.2 1015148
04:00−19ne249794 0.1 1017131
07:00−21ene229887 0.1 101732
10:00−19e129798 0.1 1017100
13:00−16se229199 0.2 1017300
16:00−14se2390100 0.2 1016390
19:00−15se2296100 0.4 101662
22:00−16se229695 0.1 101521
3 march, wed
wed301:00−17se129791 0.1 101520
04:00−17ese119793 0.1 101520
07:00−17ese119793 0.2 101620
10:00−17sse119681 0.1 101621
13:00−13s228982 0.1 1017368
16:00−12ssw3489100 0.0 1017482
19:00−15s349597 0.1 101861
22:00−18s359748 0.0 101889
4 march, thu
thu401:00−18sse489671 0.0 1018185
04:00−18sse499594 0.0 1017261
07:00−17sse4109497 0.0 1017276
10:00−16sse51194100 0.0 1015342
13:00−12sse61194100 0.1 1014385
16:00−10sse71192100 0.0 1012429
19:00−11sse6139197 0.1 1011382
22:00−11sse61295100 0.3 1010436